Theta_e
336 336 336 337 337 337 337 336 336 336 336 335 335 336 336 336 336 336 336 337 337 337 337 337 337 336 336 336 335 335 334 335 334 334 334 334 334 334 334 334 333 333 332 332 332 331 331 330 328 327 325 325 325 324 322 322 322 322 321 320 319 318 317 315 314 315 316 317 319 322 323 321 318 316 315 313 311 307 303 302 302 301 302 305 307
336 336 336 337 337 336 336 336 336 336 335 336 336 336 336 336 336 336 336 337 337 337 337 337 336 336 336 335 334 333 333 333 333 332 332 332 331 332 332 332 332 332 331 331 332 331 330 330 327 325 324 323 322 321 320 319 319 319 319 318 316 314 314 313 312 313 314 317 319 321 323 323 319 314 312 312 310 306 301 299 300 299 300 303 305
337 337 337 337 337 336 336 335 335 335 336 336 336 336 336 336 336 337 337 337 336 336 336 336 335 335 335 334 332 332 331 332 332 331 330 330 329 329 329 329 329 329 329 329 329 329 327 326 324 323 322 321 320 318 317 315 314 315 315 315 313 312 312 312 312 311 312 315 318 322 324 326 326 317 309 310 310 305 299 297 299 299 299 300 302
338 338 338 337 337 336 335 335 335 335 335 335 335 336 336 336 337 337 337 337 336 336 335 335 335 334 334 332 332 332 330 331 331 328 328 328 327 327 326 326 326 326 325 326 326 325 323 322 321 321 319 318 317 315 313 312 310 309 309 310 310 311 311 312 311 310 309 313 319 323 320 323 330 319 309 310 309 305 299 296 298 299 298 299 300
338 338 338 337 337 337 335 335 335 335 335 334 335 335 336 336 337 337 337 336 335 335 335 335 334 333 332 330 330 329 328 329 328 326 325 325 325 324 324 323 323 323 323 323 322 321 321 320 319 318 317 315 314 312 311 309 306 306 306 307 309 310 311 311 311 310 309 309 313 318 319 321 322 313 310 312 308 305 301 296 297 298 298 298 299
337 337 338 337 337 337 336 336 335 335 335 335 335 335 336 336 336 336 336 335 335 334 334 335 334 333 331 330 328 327 325 325 325 324 323 323 322 322 321 321 321 321 320 320 320 319 319 318 317 316 314 313 312 311 309 306 305 306 306 307 308 309 310 311 311 310 309 308 307 309 312 314 311 308 311 313 308 305 302 297 296 297 297 298 298
336 336 337 337 336 336 336 336 336 335 335 335 336 335 335 335 335 335 335 334 334 334 334 334 333 332 331 330 330 329 326 324 323 323 322 321 320 319 319 318 318 318 318 318 318 317 317 316 315 313 312 311 310 309 307 306 306 307 307 307 308 308 308 309 309 308 308 307 306 306 305 306 306 306 308 311 310 307 302 298 296 296 297 297 297
336 336 336 336 336 336 336 336 336 336 336 336 335 335 335 334 334 334 334 334 334 334 334 334 333 332 331 331 330 329 327 324 322 321 320 319 318 317 317 316 316 316 316 316 316 316 315 314 312 311 310 310 310 308 308 307 307 308 308 307 308 308 308 308 307 307 306 306 305 305 305 304 304 303 303 306 308 306 303 299 297 296 296 297 297
336 335 335 336 335 336 336 337 337 336 336 336 335 335 335 334 334 333 333 334 334 334 334 333 333 332 331 331 329 327 326 323 321 319 318 317 317 315 315 314 314 314 315 315 315 315 314 312 311 309 309 309 309 308 308 307 307 308 307 307 307 307 307 307 306 305 305 305 304 304 304 303 302 301 300 301 302 304 304 300 297 297 297 296 296
337 335 336 336 335 336 336 336 337 337 337 336 336 335 334 334 334 333 333 333 333 333 334 333 332 331 331 330 328 325 323 321 319 318 316 316 315 313 313 312 312 312 313 313 313 313 312 311 310 309 308 308 308 308 307 307 307 307 307 307 306 306 306 305 305 304 304 303 303 302 302 301 301 299 299 299 299 300 301 299 297 297 298 298 296
337 336 336 337 336 335 336 336 337 337 337 336 335 335 334 334 333 332 332 332 333 333 334 333 332 332 331 330 328 324 322 320 318 316 315 314 313 312 311 311 311 311 311 311 311 311 310 309 308 308 307 307 307 307 307 307 307 307 306 305 305 305 305 304 304 303 303 301 300 299 298 298 299 298 298 298 298 298 298 298 296 296 297 297 296
336 337 337 337 336 335 335 336 336 336 336 336 335 334 334 333 332 332 332 332 333 333 334 333 332 332 331 329 327 325 323 321 318 316 314 313 312 311 310 310 310 310 310 310 310 309 308 308 308 307 307 306 306 306 306 306 306 306 305 304 303 303 303 303 303 302 301 299 297 296 296 296 297 297 297 297 297 297 297 296 296 296 297 297 296
335 337 338 337 336 335 335 335 335 335 335 335 335 334 333 333 332 332 332 333 333 333 333 333 333 331 330 329 327 325 323 321 319 316 314 313 311 310 309 309 309 309 309 309 308 308 307 307 307 307 307 306 306 306 306 306 306 306 305 304 303 303 303 302 301 301 299 297 296 296 296 296 296 296 296 296 296 296 296 296 296 296 296 296 296
335 337 338 337 336 335 335 335 334 334 335 334 333 333 333 332 332 333 333 333 333 334 333 333 333 331 329 328 326 324 322 320 318 316 313 311 310 309 308 308 308 308 308 308 308 307 307 306 307 307 307 306 306 306 305 305 305 305 304 304 303 302 302 300 298 298 297 296 296 296 296 297 296 296 296 295 296 296 296 296 296 296 296 295 295
335 337 337 336 336 335 335 334 334 333 334 333 333 332 332 331 332 332 332 332 333 333 333 332 331 330 328 327 325 323 321 319 317 315 312 310 308 307 307 307 307 307 307 307 307 307 306 306 306 307 307 306 306 305 305 305 305 304 304 303 302 302 301 298 296 296 296 296 296 297 297 296 295 295 294 294 295 296 296 296 296 296 297 296 295
336 337 337 336 335 335 335 334 333 333 332 332 331 331 330 330 331 332 332 331 331 331 331 331 330 328 327 325 323 322 320 318 316 314 312 309 307 306 306 306 307 307 307 307 307 306 306 305 306 306 306 306 305 305 305 304 304 304 303 302 302 301 300 297 295 295 296 296 296 297 296 296 295 293 293 293 294 295 296 296 296 296 297 297 296
336 337 336 336 335 334 334 334 332 332 331 330 329 329 329 329 330 330 330 330 330 330 330 329 328 326 325 324 322 321 319 317 316 314 311 308 306 305 305 305 306 306 306 306 306 306 306 305 305 305 306 305 305 305 304 303 303 303 303 302 301 301 299 297 295 296 296 296 296 296 296 296 294 293 293 293 294 295 295 296 296 296 296 296 296
336 336 335 335 334 333 333 333 331 331 330 328 327 327 328 329 329 329 328 327 327 328 328 327 326 325 324 323 322 319 318 317 315 313 310 308 306 305 305 305 306 306 306 306 305 305 305 305 305 305 305 305 305 304 303 303 303 303 302 301 301 300 298 297 296 296 296 297 296 296 296 295 294 293 293 293 294 295 295 295 296 296 296 295 296
337 336 335 334 334 333 332 331 330 330 328 326 325 325 326 327 327 327 326 326 326 326 326 325 325 324 323 321 320 318 317 316 314 311 309 307 306 305 305 305 305 305 305 305 305 305 305 305 305 305 305 305 304 304 303 303 302 302 302 301 301 300 298 297 297 297 297 297 296 296 295 295 294 293 293 293 294 295 295 295 296 296 296 295 295
336 335 335 333 333 332 331 329 329 328 326 325 323 323 324 324 324 325 324 323 323 323 323 322 322 321 320 319 318 316 315 314 312 309 307 306 306 305 305 305 304 304 305 305 305 304 304 304 304 304 304 304 304 303 303 303 302 302 301 301 300 299 297 297 297 297 297 297 296 296 294 294 293 293 293 293 293 294 295 295 296 296 295 295 295
335 335 334 333 332 331 330 328 327 326 324 323 322 322 322 322 322 323 322 321 320 320 320 319 318 318 317 317 315 315 314 312 310 307 306 305 305 305 305 305 304 304 304 304 304 304 304 304 304 304 304 304 304 304 303 303 302 302 301 300 299 297 297 297 297 297 297 297 296 295 294 294 294 293 293 293 293 294 294 294 295 295 295 295 295
334 334 333 333 332 330 328 327 325 324 322 321 321 320 320 321 321 321 320 320 319 318 318 317 316 316 315 315 314 313 312 310 308 306 305 305 305 305 305 305 304 304 303 303 303 304 304 304 304 303 304 304 303 303 303 302 302 301 301 300 298 297 297 297 297 297 296 296 295 295 294 294 294 293 293 293 293 293 294 294 294 294 294 294 294
334 333 332 332 331 329 327 325 323 322 321 320 319 319 319 319 319 319 319 318 318 317 317 316 315 315 314 314 313 312 310 309 307 306 306 306 305 305 304 304 304 304 303 303 302 303 304 304 304 304 304 304 303 303 303 302 302 301 301 300 298 298 297 297 297 297 296 295 294 294 295 294 293 292 292 293 293 293 293 294 294 293 294 294 293
334 332 332 331 330 329 327 325 323 321 320 319 318 318 318 318 318 318 318 317 317 316 316 315 315 314 313 313 311 310 309 307 306 306 306 305 305 304 304 304 303 303 302 302 302 302 303 304 304 304 304 304 303 303 302 302 301 301 301 300 299 298 298 298 297 297 296 296 295 295 295 294 292 292 293 293 293 293 294 294 294 294 294 294 293
334 332 331 330 329 328 326 324 322 320 319 318 318 317 317 317 317 317 317 316 316 315 315 314 314 313 312 311 310 309 308 307 306 306 305 305 304 304 303 303 302 302 300 299 299 300 302 303 304 304 303 303 303 303 302 302 301 301 300 300 299 299 298 298 298 297 297 296 295 295 295 293 292 293 293 294 294 294 294 294 294 294 294 293 293
333 332 331 329 328 327 326 324 322 320 319 318 317 317 316 316 316 316 316 315 315 315 314 313 313 312 311 310 309 308 307 306 306 305 305 304 304 303 303 303 302 302 300 296 295 297 300 302 304 304 303 303 303 303 302 302 301 301 300 300 300 299 298 298 298 297 297 296 296 296 294 293 293 293 294 294 294 294 294 294 294 293 293 293 293
333 331 330 329 327 326 325 324 322 319 318 317 317 316 316 315 315 315 315 315 314 314 313 312 312 311 310 309 308 307 306 306 305 305 304 304 303 303 303 303 302 301 298 294 293 295 298 301 303 303 303 303 303 303 302 302 301 300 300 300 300 299 299 299 298 297 297 296 296 296 294 293 294 294 294 294 294 294 294 293 293 292 292 292 292
332 331 330 328 327 325 324 323 321 319 318 317 316 316 315 315 314 314 314 314 313 313 312 312 311 310 309 308 307 306 305 305 305 304 304 304 303 303 302 302 300 298 295 293 293 294 297 300 302 303 303 303 302 302 302 301 301 300 300 299 299 299 299 299 298 298 297 296 296 295 294 293 294 294 294 294 294 294 294 292 292 292 292 292 292
332 330 330 329 327 325 324 322 321 319 318 317 316 315 315 314 314 313 313 313 313 312 311 310 310 309 309 308 307 306 305 304 304 304 304 303 303 302 302 300 297 294 293 294 294 295 296 299 302 303 303 302 302 302 302 301 301 300 300 299 299 299 299 299 298 298 297 296 296 295 294 294 294 294 294 294 294 293 293 292 292 291 291 291 291
332 330 329 328 327 325 324 322 320 318 317 316 315 314 314 313 313 312 312 312 312 311 310 310 309 309 308 307 306 306 305 304 304 304 303 303 302 302 301 298 294 293 293 294 294 295 296 299 301 302 302 302 302 302 302 301 301 300 300 299 298 298 298 299 299 298 297 296 296 295 294 294 294 294 294 294 294 293 292 292 291 290 290 290 290
331 330 329 328 326 325 323 321 320 318 317 316 315 314 313 313 312 312 312 311 311 311 310 309 309 308 307 306 305 305 304 304 304 304 303 303 302 302 301 297 294 293 294 294 294 295 296 298 300 301 302 302 301 301 301 301 301 300 299 299 299 298 298 298 298 298 296 296 296 295 295 295 294 294 294 294 293 293 292 292 291 290 289 290 290
330 329 329 327 326 325 323 321 319 318 317 316 315 314 313 312 312 311 311 311 310 310 309 309 309 307 306 306 305 305 304 304 304 304 303 302 302 301 299 295 293 293 294 294 294 295 296 297 299 300 301 301 301 301 300 300 300 300 300 299 299 299 298 297 298 297 296 296 296 296 295 294 294 295 294 293 293 292 292 291 290 289 289 289 289
330 329 328 327 325 324 323 321 319 318 317 316 315 314 313 312 312 311 310 310 309 309 309 308 308 307 306 305 305 304 304 303 303 303 303 302 302 300 297 293 292 293 293 294 294 295 296 297 298 299 300 300 300 300 300 300 300 300 300 300 299 299 298 297 297 297 297 296 296 296 295 294 295 295 294 293 293 292 292 291 290 289 289 290 290
330 329 328 327 325 324 323 321 319 318 317 316 315 314 313 312 312 311 310 309 309 308 308 307 307 306 305 305 304 304 303 303 303 303 302 302 301 299 297 294 292 292 293 293 294 295 296 297 298 299 299 299 299 299 299 299 299 299 299 299 299 299 298 298 297 297 297 296 296 295 294 294 295 294 293 293 293 292 292 291 290 289 289 290 291
330 329 328 326 324 323 322 320 319 318 317 316 315 314 313 312 311 310 309 309 308 308 307 307 306 305 305 304 304 303 303 303 303 303 302 302 301 300 298 295 292 292 293 293 293 294 296 297 298 298 298 298 298 298 298 298 298 298 298 298 299 298 298 297 297 297 297 297 296 295 294 295 295 294 293 293 293 292 291 290 289 289 289 290 292
329 328 327 325 324 323 322 320 319 318 317 316 314 314 312 311 310 310 309 308 308 307 307 306 305 305 304 304 303 303 303 303 303 303 302 302 301 301 299 296 292 292 293 293 293 294 295 296 297 297 298 298 298 298 297 296 294 294 295 297 298 298 298 297 297 297 297 296 295 294 294 295 295 293 293 293 292 292 290 289 289 289 288 290 292
329 327 327 325 324 323 322 320 319 318 316 316 314 313 312 311 310 309 309 308 307 307 306 306 305 304 304 303 303 303 303 303 303 303 302 302 301 301 300 296 293 292 292 292 293 293 293 294 295 295 296 295 294 294 293 292 291 292 293 296 297 297 298 297 297 297 296 295 294 295 295 295 295 293 292 292 292 291 290 289 289 288 288 290 291
327 326 325 324 323 322 321 320 319 317 316 315 314 313 312 311 310 309 308 308 307 307 306 305 304 304 304 303 303 303 303 303 303 303 302 302 301 302 301 298 293 291 292 291 291 291 291 291 292 292 292 291 291 291 291 290 291 292 293 295 296 297 297 297 297 297 295 294 294 295 295 295 294 293 292 292 291 290 289 289 289 288 288 289 291
326 326 324 323 322 321 321 320 318 316 316 315 314 313 312 311 310 309 308 307 307 307 306 305 304 304 303 303 303 303 303 303 303 303 302 302 302 302 302 300 295 291 291 291 291 292 292 291 291 290 290 290 290 290 290 290 290 290 291 292 294 295 296 296 296 296 295 294 295 295 295 295 294 293 292 291 290 290 289 288 288 288 288 289 290
324 325 323 322 322 320 320 319 318 316 315 315 314 312 312 311 310 309 308 307 307 307 306 305 304 303 303 303 303 303 303 302 303 303 303 302 302 302 302 301 296 291 291 293 294 295 295 294 293 292 291 290 290 290 290 290 290 290 290 291 292 294 294 295 295 295 294 295 295 295 295 294 293 293 292 291 290 290 289 289 288 288 288 289 290
323 324 323 321 320 320 320 319 318 316 314 314 314 312 311 311 309 309 308 307 307 306 305 304 304 303 303 303 302 302 302 302 302 302 302 303 303 302 302 302 298 293 292 295 296 297 298 297 296 295 293 291 290 290 290 289 289 290 291 292 293 293 294 294 294 295 295 295 295 295 295 294 293 293 292 291 290 290 290 290 289 288 288 288 290
322 322 322 321 320 319 319 318 317 315 314 313 313 312 311 310 309 309 308 307 307 306 305 304 303 303 302 302 302 302 302 302 302 302 302 302 303 302 302 302 300 296 294 295 296 297 297 298 298 297 295 293 292 291 290 290 289 290 291 292 293 294 294 294 295 295 295 295 295 295 294 294 293 293 293 292 291 290 291 291 291 289 288 288 289
320 320 320 320 320 319 318 318 316 315 314 313 313 312 311 310 309 309 308 307 307 306 305 303 303 302 302 302 302 302 302 302 302 301 302 302 302 302 302 302 302 299 296 295 296 297 297 297 298 298 297 296 294 292 291 290 289 290 292 293 294 294 294 295 295 295 295 295 295 295 294 294 294 293 293 292 292 292 291 292 292 291 290 288 288
320 319 320 319 319 318 318 317 316 314 313 313 313 312 311 310 310 309 308 307 306 305 304 303 303 302 302 301 301 302 302 302 301 301 301 301 301 301 301 301 301 300 297 295 296 297 297 297 298 298 298 298 296 293 292 290 289 290 292 293 294 294 295 295 295 295 295 295 295 295 294 294 294 294 293 293 293 293 292 292 292 292 292 290 288
319 319 319 319 319 318 317 316 315 314 313 313 313 312 311 310 310 309 308 306 305 304 304 303 302 302 301 301 301 301 301 301 301 301 301 301 300 299 299 300 300 298 296 296 297 297 297 298 298 298 299 299 297 295 293 291 289 290 292 294 294 294 295 295 295 295 295 295 295 295 294 294 294 294 294 293 293 293 293 293 293 293 292 291 289
319 318 318 319 319 318 316 315 314 313 313 312 312 312 311 310 309 309 307 306 304 304 304 302 302 301 301 300 301 301 301 301 301 301 301 301 299 297 296 297 297 297 297 297 298 298 298 298 299 299 299 299 298 297 295 291 289 290 292 293 294 294 294 295 295 295 295 295 295 295 295 294 294 294 294 294 293 293 293 293 293 293 293 292 290
318 318 318 318 318 316 315 314 313 313 313 312 312 312 311 310 309 308 306 305 304 304 303 302 301 301 300 300 300 300 300 301 301 301 301 300 299 298 297 296 296 297 298 298 298 299 299 299 299 299 299 299 299 299 297 293 290 290 291 293 294 294 294 294 295 295 295 295 295 295 295 295 294 294 294 294 293 293 293 293 293 293 293 293 292
318 317 318 318 317 316 315 313 313 313 312 312 312 311 311 309 308 307 306 305 305 304 303 301 301 301 300 300 300 300 300 301 301 301 300 300 299 299 299 299 298 299 299 299 299 299 299 300 300 300 300 299 299 299 299 295 292 290 291 293 294 294 294 295 295 295 295 295 295 295 295 295 294 294 294 294 293 293 293 293 293 294 293 293 292
317 317 317 317 316 315 314 313 313 312 312 312 311 311 310 309 307 306 305 305 304 303 302 301 301 301 301 300 300 300 301 301 301 300 300 300 300 300 300 300 300 300 300 300 300 300 300 300 300 300 300 300 299 299 299 297 294 291 290 293 294 294 295 295 295 295 295 295 295 295 295 295 294 294 294 294 293 293 293 293 294 294 294 293 293
316 316 317 317 316 315 314 313 313 312 312 312 311 310 310 309 307 306 305 305 304 302 301 301 301 301 301 301 300 300 301 301 301 300 300 300 300 300 301 301 300 300 300 300 300 300 300 301 301 301 300 300 299 299 299 298 295 291 290 292 294 294 295 295 295 296 296 295 295 295 295 295 294 294 294 294 294 293 293 293 293 294 294 294 293
315 315 315 315 315 314 313 312 312 312 311 311 310 310 309 308 307 306 306 305 304 302 301 301 301 301 301 301 300 300 301 301 301 300 300 300 300 300 300 301 300 300 300 300 300 300 300 301 301 301 300 299 299 298 298 298 295 292 290 291 292 294 295 295 295 296 296 295 295 295 295 295 294 294 294 294 294 293 293 293 293 294 294 294 293
Wind_Speed
8 11 13 14 14 16 18 19 20 20 21 24 24 23 24 23 22 22 21 20 20 20 20 20 20 19 18 17 16 17 17 17 17 16 15 14 13 12 12 11 11 10 10 8 8 7 6 5 4 4 4 4 5 6 7 7 7 6 5 5 7 9 12 16 14 7 5 5 4 7 8 7 9 15 20 21 21 23 23 22 23 22 22 21 22
9 11 12 14 14 16 18 20 22 22 22 24 24 24 24 24 23 22 21 21 20 20 21 21 21 20 20 20 20 20 19 18 18 16 14 13 12 11 10 9 8 8 7 6 4 3 3 3 3 4 4 5 6 6 6 6 7 6 5 7 9 13 17 20 18 11 8 6 2 3 4 3 2 9 19 21 20 22 24 24 24 25 25 23 23
9 10 12 15 16 17 18 19 22 23 24 24 24 24 24 24 23 22 21 20 20 21 22 21 20 21 22 23 23 21 20 19 17 15 13 12 10 9 8 7 5 5 5 4 3 3 3 4 5 5 5 5 5 6 7 8 10 9 8 9 10 14 19 22 22 19 14 6 2 3 3 1 2 5 15 19 18 20 25 27 25 26 26 25 24
10 10 10 14 17 18 17 19 20 21 22 21 21 22 23 24 23 22 22 21 21 22 21 20 21 22 23 23 23 22 20 18 16 14 12 11 9 8 6 5 4 4 4 4 4 5 6 7 7 7 7 7 6 8 11 12 13 13 12 11 11 15 20 23 23 23 21 12 4 1 2 3 2 5 13 13 13 18 24 28 27 26 27 26 25
11 12 10 11 16 19 18 20 20 20 20 19 20 21 22 23 23 23 23 22 22 23 21 21 24 25 25 24 22 22 20 18 16 14 11 10 9 7 6 4 3 4 5 5 6 7 8 8 9 9 9 9 9 12 15 16 16 16 15 14 15 16 19 23 24 24 26 22 13 6 3 2 1 6 10 7 9 15 20 27 27 26 27 27 26
10 11 10 10 14 18 19 20 20 19 20 20 20 21 22 22 22 23 24 23 23 22 22 25 28 28 27 26 24 22 19 16 15 14 11 10 8 7 6 4 4 5 6 7 7 8 9 10 10 10 12 12 13 15 17 18 18 17 16 15 16 16 16 21 23 22 24 26 24 18 12 7 2 5 4 3 6 9 15 24 27 26 25 26 27
10 10 10 10 14 17 19 19 19 19 19 20 20 21 22 22 23 23 23 23 22 22 24 27 29 28 28 27 25 23 20 16 14 13 11 10 9 8 7 6 5 7 9 9 9 10 11 12 12 13 14 15 15 17 18 19 19 18 17 17 18 16 16 21 21 19 20 22 22 20 19 17 14 10 4 2 4 5 11 21 26 26 24 25 27
11 11 10 11 13 16 18 19 20 20 20 21 20 20 22 22 23 22 22 22 22 23 26 29 29 28 27 26 24 22 21 18 16 13 12 11 10 9 8 8 8 9 11 11 11 11 12 13 14 15 16 17 17 18 20 19 19 18 18 19 20 20 20 22 22 19 18 17 16 17 18 19 20 19 13 6 2 4 8 14 23 28 24 24 27
11 12 12 12 13 16 18 18 20 23 22 22 21 21 22 22 22 21 21 22 22 24 28 28 28 28 27 25 23 20 20 19 17 15 13 11 11 11 10 10 11 12 12 12 12 13 14 15 15 16 17 18 18 19 20 19 19 19 20 21 22 23 22 21 22 21 19 17 16 16 17 18 19 22 22 16 7 4 4 6 18 26 22 24 27
11 12 12 14 16 18 19 19 21 23 22 23 22 20 21 21 21 20 20 22 23 26 29 28 28 27 26 25 23 22 21 21 19 16 15 13 13 13 12 13 13 14 15 14 15 15 16 16 16 17 18 18 19 19 19 19 20 21 22 22 23 24 23 21 22 21 21 20 19 19 19 19 17 18 21 19 12 6 4 5 13 18 14 19 26
11 11 10 15 19 21 20 19 21 22 21 22 21 20 20 20 20 21 21 23 25 27 29 28 27 27 26 25 24 24 24 22 21 19 16 15 15 14 14 14 15 16 17 17 17 17 17 17 17 18 18 19 19 19 20 20 21 21 22 23 23 23 22 22 23 22 22 22 23 23 22 21 17 15 16 16 12 7 5 5 11 16 11 13 23
10 10 9 12 16 19 21 19 20 23 22 22 21 20 21 21 21 22 22 24 26 28 28 28 27 26 25 24 24 24 24 22 21 20 17 16 16 16 16 16 17 18 18 18 19 18 18 19 19 19 19 19 20 20 20 20 20 21 22 22 23 23 22 22 22 22 22 23 24 25 25 25 23 19 17 17 15 12 10 6 11 16 9 11 20
9 9 9 10 11 16 23 21 20 23 24 23 22 22 22 23 23 24 24 25 26 27 27 27 26 25 24 24 23 23 22 21 20 19 17 17 17 18 18 18 19 19 20 20 20 18 19 19 19 20 20 20 20 20 20 20 20 21 22 23 23 23 22 21 21 20 21 23 25 25 25 25 23 21 19 19 18 16 15 10 12 14 7 11 19
9 9 10 9 11 17 23 23 21 23 25 25 24 23 24 24 25 25 25 25 26 26 26 26 25 25 24 24 24 23 22 21 19 18 18 17 17 18 18 19 19 20 21 21 20 19 19 20 20 20 20 20 20 20 20 20 20 21 22 23 24 23 22 21 21 21 22 23 24 25 25 24 22 21 20 19 18 18 17 14 13 13 8 10 15
9 9 10 10 13 19 22 22 21 22 25 25 24 24 24 25 26 26 25 25 25 26 26 26 25 25 25 24 23 22 21 20 19 19 18 17 18 18 18 19 19 20 21 21 20 20 20 21 20 20 20 20 20 20 20 19 19 21 22 23 23 22 21 22 22 22 23 23 24 24 23 23 22 22 20 19 16 14 15 14 13 10 7 8 10
10 10 10 12 15 19 21 21 20 22 24 24 24 26 26 26 27 27 26 25 25 26 26 25 25 24 24 24 23 22 22 22 21 20 18 17 18 18 19 19 20 21 21 21 20 20 21 21 21 21 20 20 19 19 19 19 19 21 22 22 22 21 21 23 22 23 23 23 23 22 22 23 23 23 22 19 16 13 12 13 14 11 6 6 6
11 10 10 12 15 18 21 22 22 22 24 24 25 27 28 28 28 28 27 25 25 25 25 25 25 24 23 23 22 22 23 22 22 21 19 19 18 18 19 20 20 21 21 21 21 20 20 20 21 21 20 20 20 19 19 19 19 20 20 21 21 21 22 22 21 22 22 22 22 21 21 22 23 24 24 21 17 14 12 11 12 12 8 5 3
10 10 10 11 14 17 19 22 24 24 24 25 26 27 29 29 29 29 28 26 25 25 25 24 23 22 22 22 22 23 23 22 21 21 20 20 20 19 20 21 21 21 21 21 21 20 20 20 20 21 20 20 20 19 19 19 19 20 20 20 20 20 21 22 20 21 21 21 21 21 20 21 22 24 25 23 18 15 13 12 11 11 10 7 4
9 11 10 10 14 18 19 21 25 26 25 25 26 27 29 30 29 29 28 27 26 25 24 23 22 22 22 22 23 23 24 23 21 21 21 21 21 21 21 21 21 21 21 20 20 20 20 20 20 21 20 20 19 19 19 18 18 19 19 19 18 18 20 21 20 20 20 19 20 20 20 20 21 23 24 23 20 15 13 12 11 11 11 11 9
10 11 11 9 13 19 22 22 25 27 27 27 28 28 29 29 29 29 27 26 25 24 24 23 23 23 23 23 24 24 24 22 21 21 21 22 23 22 21 21 21 20 20 19 19 19 20 20 20 20 20 20 19 19 18 18 18 18 18 18 17 17 19 20 20 19 18 18 19 20 20 20 20 21 22 22 21 17 14 12 12 13 14 14 14
10 12 12 11 14 19 23 24 25 26 26 27 28 28 29 29 29 29 28 27 26 24 24 24 24 24 25 25 25 25 23 22 22 22 23 24 23 22 22 21 21 19 18 19 19 19 19 19 20 20 20 20 19 19 18 18 18 18 17 17 17 18 19 19 19 18 17 17 17 19 20 20 20 20 21 20 20 19 17 15 15 15 16 17 16
11 12 12 12 14 19 22 23 24 25 25 25 27 28 28 29 28 28 28 27 26 25 25 24 25 25 25 25 25 24 23 23 23 24 24 24 23 22 22 21 20 19 17 17 18 18 18 18 19 20 20 20 19 19 19 18 18 18 17 16 16 17 19 18 18 17 17 16 17 18 19 19 19 20 20 19 18 18 18 18 18 18 19 20 19
12 12 11 12 16 20 22 22 23 25 25 24 25 27 28 29 28 28 27 27 26 26 25 25 25 25 25 25 24 24 24 24 24 25 24 23 23 23 22 20 20 18 16 15 16 17 18 18 19 20 20 20 19 19 19 18 17 17 16 15 14 16 17 17 16 16 16 17 17 18 18 18 19 19 20 19 18 18 19 19 20 21 21 22 22
11 11 10 12 16 19 20 21 21 23 24 24 24 25 27 28 28 28 27 27 27 26 26 26 26 25 25 24 24 24 25 25 25 25 24 24 23 23 21 19 18 17 15 15 15 16 17 18 19 20 19 19 19 18 18 17 17 16 15 15 14 14 14 14 14 14 15 16 17 18 18 18 18 19 19 19 19 19 20 20 21 22 22 23 24
11 11 10 11 13 14 18 20 21 22 23 24 25 25 26 27 28 28 28 27 27 27 27 26 26 26 25 25 25 25 25 26 25 25 24 24 24 22 20 18 17 15 14 14 15 16 17 19 19 19 19 19 18 17 17 17 16 15 14 14 13 13 12 11 11 12 13 15 16 17 17 17 18 18 18 19 20 21 22 23 22 23 23 24 24
12 12 12 12 11 13 17 21 23 23 23 24 25 26 26 27 27 28 28 28 27 27 27 27 27 27 26 26 26 25 26 26 25 25 24 24 23 21 19 17 15 13 12 13 15 17 18 19 20 19 19 18 17 17 17 17 15 14 13 12 11 11 10 9 9 10 12 14 15 16 16 16 16 17 18 20 22 24 24 24 24 24 24 25 26
13 12 12 13 12 13 16 20 24 25 24 24 26 27 27 27 27 28 28 28 28 27 27 28 27 28 27 27 26 26 26 26 25 25 25 24 22 20 18 15 12 11 12 14 16 18 19 20 20 19 19 18 17 16 16 16 14 13 12 11 10 9 9 7 6 8 10 12 13 14 15 15 15 17 19 21 23 25 25 24 24 25 25 25 26
12 13 13 14 14 13 16 19 23 25 26 25 26 27 28 28 28 28 28 28 28 28 29 28 28 28 28 27 27 26 26 26 25 25 25 23 21 19 16 14 12 11 14 16 17 19 20 20 20 20 19 18 17 16 15 15 14 12 11 10 9 8 8 7 5 6 9 10 11 13 14 14 15 17 19 22 23 24 24 23 24 24 25 26 26
14 15 15 15 15 14 16 20 22 25 26 26 25 26 27 28 28 29 29 29 29 30 30 30 29 28 28 27 27 27 27 26 25 25 25 23 21 18 15 13 12 14 16 18 18 18 19 20 20 20 18 17 16 16 15 14 13 11 10 10 9 9 8 7 5 5 7 9 10 12 13 13 15 17 19 21 21 21 22 23 24 25 26 26 26
16 16 16 15 15 14 17 20 22 24 26 26 26 26 27 28 29 29 29 30 30 30 30 30 29 28 28 27 27 28 27 26 26 26 25 24 21 18 16 14 14 16 17 18 18 18 19 19 20 19 18 17 16 15 14 13 12 11 9 9 9 9 8 6 4 4 6 7 9 11 12 13 16 17 19 20 19 19 20 21 23 24 25 25 26
15 16 15 14 13 14 16 20 23 26 27 27 26 27 28 29 29 30 30 30 31 31 31 30 29 29 28 28 28 28 28 27 27 27 26 24 21 18 16 15 15 17 17 17 17 17 18 18 18 18 17 16 15 14 13 12 11 10 9 8 7 6 6 5 5 5 5 5 7 9 12 14 16 18 18 19 19 20 21 21 22 22 22 23 24
15 15 14 14 14 15 16 20 23 26 28 28 28 28 28 29 30 31 31 32 31 31 31 30 30 29 29 29 29 29 29 28 28 28 26 24 21 19 17 16 16 17 17 17 17 17 17 17 17 17 17 15 14 13 12 11 10 9 8 6 5 5 4 4 5 5 4 4 5 8 11 13 15 17 17 18 19 20 21 22 23 23 22 22 23
16 16 16 16 16 17 20 23 25 28 29 30 31 30 29 31 33 32 32 33 32 32 32 31 30 31 31 30 30 30 30 30 29 28 27 25 22 19 17 16 16 16 16 17 17 17 17 17 17 17 16 15 14 12 10 10 8 7 6 5 4 4 4 4 6 6 3 3 3 8 11 12 14 16 16 18 20 21 22 23 23 24 24 24 24
15 16 16 14 15 18 21 24 26 29 30 31 32 32 32 33 34 33 34 34 33 32 32 31 31 32 31 31 31 31 30 30 29 29 27 25 23 20 17 16 16 16 17 17 17 17 17 17 17 17 16 14 12 11 9 8 7 5 5 4 4 4 4 4 6 6 3 3 3 8 10 12 14 15 16 18 20 21 23 24 25 26 26 26 25
14 15 13 13 15 19 21 24 27 29 29 30 31 31 30 31 32 34 34 33 33 32 32 32 32 32 32 32 32 31 30 30 30 29 28 26 24 21 18 16 15 16 17 17 17 18 17 17 16 16 15 14 11 9 7 6 5 5 5 5 5 4 4 4 5 6 4 1 4 7 9 12 13 14 16 18 19 20 22 24 26 26 27 27 26
16 16 17 19 22 25 27 28 29 30 30 30 30 30 30 29 30 32 32 32 32 31 31 32 32 32 33 33 33 32 31 31 31 30 29 28 25 22 19 17 16 17 18 18 18 18 17 16 16 15 14 13 10 7 6 5 4 4 6 7 7 6 5 5 5 5 3 2 4 6 9 11 12 13 15 17 17 20 22 24 26 27 27 28 27
17 19 22 24 27 28 28 29 29 30 31 31 30 30 30 29 29 30 30 31 31 30 31 32 32 33 34 33 34 34 32 32 31 31 30 29 26 24 21 19 18 19 19 19 19 18 16 15 15 13 12 12 10 7 5 4 3 3 4 7 8 7 7 6 5 4 1 2 3 6 9 10 11 13 15 16 17 20 22 24 26 27 28 29 28
16 19 20 22 23 25 27 28 29 30 31 32 31 31 31 30 29 29 30 30 30 30 31 32 32 33 34 34 34 34 33 33 32 31 31 29 27 25 22 20 19 19 21 20 19 19 17 15 14 13 12 12 11 8 6 5 4 3 4 6 8 8 8 7 5 3 1 1 2 5 8 9 10 12 14 15 17 20 22 24 25 27 28 29 29
18 21 22 24 26 27 28 29 29 29 30 32 32 32 31 30 29 29 29 29 29 30 31 32 32 33 34 34 34 34 34 33 32 31 30 29 27 25 23 21 19 20 22 22 21 20 18 16 15 13 12 11 10 9 7 6 5 4 3 4 6 7 8 7 5 4 3 2 2 4 7 8 9 11 13 15 18 20 22 24 25 26 27 28 29
18 21 23 25 28 29 29 28 28 29 31 32 33 32 30 28 28 28 27 27 28 29 30 30 31 33 33 34 34 34 34 33 32 31 29 28 27 26 24 22 21 21 23 23 21 19 17 15 14 12 11 10 9 8 7 6 5 4 3 3 4 6 8 8 7 6 4 2 2 4 6 7 8 10 12 15 18 20 23 25 26 26 25 26 27
21 24 25 26 28 29 30 30 30 30 32 33 33 30 28 27 27 27 27 27 27 28 28 29 31 32 33 33 33 34 34 33 32 30 29 28 27 26 26 24 23 23 23 22 20 17 15 13 12 11 9 8 7 7 6 5 4 4 4 4 5 8 9 10 8 6 3 2 3 4 5 6 8 10 12 15 18 20 22 26 28 27 25 25 26
20 24 27 28 26 26 27 28 29 31 33 34 32 30 28 28 27 28 28 27 27 28 29 29 31 32 33 33 33 33 33 32 31 30 30 28 27 26 26 25 25 24 23 21 20 17 15 13 11 9 8 6 5 5 5 4 4 4 4 5 7 9 9 8 7 4 2 2 3 5 5 6 8 10 11 14 18 20 22 24 27 29 29 28 27
21 24 27 28 25 25 27 27 28 31 34 34 33 30 27 27 27 28 28 28 28 29 29 29 30 31 31 32 33 33 33 32 31 30 30 30 28 27 27 26 26 25 24 23 21 19 16 15 13 11 9 6 4 3 3 3 2 3 4 6 7 8 8 6 5 3 1 2 4 4 3 4 7 10 11 13 16 19 21 23 26 29 31 31 30
22 24 27 28 25 24 26 28 30 32 33 34 34 30 27 27 27 27 28 28 29 30 30 31 31 31 31 31 32 33 32 32 31 31 31 30 29 27 27 27 27 26 26 25 22 20 19 17 15 14 12 10 7 5 3 2 1 2 4 6 7 7 6 5 3 1 1 3 3 3 3 4 6 9 11 12 14 17 20 22 24 28 31 33 33
21 24 27 27 25 25 25 26 28 31 32 33 33 30 29 28 27 28 29 30 31 33 33 33 32 32 32 32 32 32 32 32 32 32 32 31 29 28 28 28 28 27 27 26 23 22 20 19 17 16 14 13 10 8 6 4 3 3 5 6 6 5 4 3 2 1 2 3 3 4 3 4 5 8 11 12 13 15 18 21 23 26 29 32 33
20 22 26 26 24 25 25 24 26 29 31 31 31 31 31 30 29 30 32 33 34 35 34 31 31 32 32 31 32 32 32 32 33 33 33 31 30 29 29 29 29 29 27 25 24 23 21 20 19 17 16 14 13 11 9 7 6 6 7 7 7 5 5 4 3 3 3 3 3 4 4 4 5 8 10 13 14 14 16 19 22 24 27 30 32
21 24 27 26 24 23 23 23 24 27 29 29 29 30 30 30 30 32 33 34 35 35 32 30 30 31 31 31 32 32 32 32 33 33 33 31 31 31 30 30 31 30 28 25 24 23 22 21 21 19 17 16 15 14 12 10 8 8 8 9 9 7 6 5 4 4 4 3 3 4 4 4 5 7 9 11 13 14 15 17 20 23 25 28 30
21 25 27 25 23 22 23 23 24 26 28 29 28 28 28 27 29 31 33 34 34 33 31 30 30 32 32 32 33 33 33 33 33 34 34 33 33 32 32 32 32 30 29 27 25 24 23 21 21 20 19 18 18 18 16 13 11 10 10 11 11 9 7 6 5 5 5 4 4 4 5 5 6 7 9 11 13 14 15 16 18 21 24 26 28
21 25 27 25 23 24 24 25 26 27 28 28 28 27 26 27 29 31 33 34 32 31 31 31 32 33 33 32 33 34 34 34 34 34 33 33 33 33 32 32 30 28 27 25 24 23 22 20 20 20 20 21 21 20 17 14 11 10 11 12 12 10 9 7 6 6 6 5 4 4 5 5 6 8 10 12 14 16 17 17 17 20 22 24 26
19 22 22 22 23 24 25 25 26 28 29 29 28 28 27 28 31 33 34 34 32 30 31 31 32 33 32 32 32 32 33 33 33 33 32 30 30 30 30 30 28 27 26 23 22 21 20 19 19 20 20 21 18 15 13 14 13 12 13 14 14 12 11 9 8 7 6 6 5 5 5 6 7 9 10 13 15 16 18 18 17 19 21 23 24
21 21 20 20 21 23 24 25 25 27 29 28 28 28 29 30 32 33 34 34 33 31 31 31 31 31 31 31 31 31 32 32 32 33 33 30 28 27 28 28 28 27 27 25 23 21 20 20 20 20 20 20 17 12 11 14 15 14 14 15 16 15 13 11 10 8 7 7 7 6 6 6 7 8 10 12 14 15 17 17 17 18 20 22 23
Wind_Direction
144 154 167 170 170 169 169 171 170 170 173 176 176 175 175 175 175 174 176 179 180 178 176 174 169 163 159 155 146 140 140 141 139 139 138 137 138 138 136 133 134 131 128 127 121 116 106 97 83 73 61 42 41 40 34 29 27 25 25 28 24 22 26 21 15 13 23 35 86 96 113 115 70 52 43 39 36 34 32 31 32 33 33 35 37
139 152 163 165 167 167 168 169 170 169 170 174 176 176 177 177 178 178 177 180 183 183 178 174 170 165 157 150 143 138 139 141 139 137 138 137 135 133 130 131 135 132 131 133 129 121 111 109 95 81 64 45 47 47 39 35 39 45 45 48 47 44 43 34 29 32 28 27 57 51 80 132 74 47 38 34 34 32 32 32 33 34 34 34 35
152 157 160 163 166 167 167 168 172 173 172 174 176 176 176 177 179 179 178 179 180 178 175 169 164 162 155 148 145 141 138 140 140 139 141 141 134 128 125 125 131 130 126 131 134 131 128 122 111 98 80 61 54 57 57 55 54 56 55 59 62 58 54 45 41 41 33 37 85 35 30 342 304 12 18 22 30 30 30 32 32 34 34 33 34
161 166 162 160 163 167 168 169 174 175 175 176 176 176 177 178 181 180 178 177 175 172 170 166 157 153 149 147 147 143 138 140 143 142 143 143 134 126 121 113 115 117 112 113 118 120 117 113 106 95 84 73 67 71 69 63 60 57 58 63 66 65 60 52 49 48 43 45 60 45 34 30 27 339 340 356 23 25 28 29 29 31 31 31 32
165 170 164 156 161 168 170 172 175 177 179 179 177 178 178 180 183 181 178 175 173 170 167 162 153 147 144 142 141 138 137 143 147 143 140 138 131 125 118 109 117 119 111 111 115 116 111 104 99 92 85 79 77 77 72 68 65 63 63 67 69 71 71 64 58 55 54 55 59 66 44 29 308 318 329 340 6 14 22 24 26 28 27 27 27
173 170 163 157 162 167 168 172 175 177 182 181 178 180 180 180 181 178 176 174 171 168 165 160 154 151 149 145 142 139 140 146 149 144 139 134 126 121 116 115 128 126 119 117 118 115 109 102 98 93 88 84 82 79 75 72 71 71 71 72 73 74 78 74 66 63 63 61 63 69 68 63 21 331 341 331 337 353 10 15 21 25 24 24 24
180 176 168 164 165 164 165 170 174 177 181 180 180 181 179 178 178 176 174 174 171 166 164 160 157 157 156 154 153 154 151 148 149 145 140 134 126 122 118 117 123 125 122 119 117 113 108 104 99 95 91 89 86 80 78 77 77 78 76 76 78 77 80 78 70 67 66 62 65 69 68 65 55 42 41 327 327 327 350 5 14 20 23 21 20
175 180 180 179 174 165 163 167 172 177 179 179 181 180 177 176 176 176 174 173 170 166 164 162 161 160 159 159 160 163 159 150 148 145 139 137 130 125 122 121 122 123 122 119 117 113 109 106 100 97 95 91 88 83 82 84 84 83 81 81 82 80 80 80 74 69 66 62 62 65 63 60 54 51 48 40 22 297 328 356 2 9 21 21 16
176 182 185 185 179 168 164 166 169 173 176 178 179 177 176 175 174 174 171 169 168 166 165 164 165 164 163 163 161 161 158 150 148 144 141 140 132 127 126 126 124 122 122 122 120 116 112 109 102 97 96 93 91 88 88 89 88 87 85 85 84 82 81 80 78 73 69 66 60 58 53 48 46 43 40 42 45 357 338 343 348 357 10 15 14
181 184 183 180 179 173 168 167 167 169 172 174 175 174 174 173 172 170 168 168 167 167 166 164 167 169 168 168 163 157 153 149 148 144 143 141 133 131 129 127 126 122 123 122 121 118 114 110 103 98 97 97 96 94 93 91 90 89 87 85 84 83 83 82 82 80 76 72 65 60 53 45 41 35 32 34 36 24 353 325 339 347 345 354 5
180 178 176 173 174 174 172 169 166 166 169 171 173 174 173 172 170 166 166 168 167 167 168 167 170 173 173 172 166 160 156 153 151 146 145 143 137 135 132 130 127 124 123 121 119 118 115 109 104 102 101 101 100 97 96 95 93 92 89 87 85 85 86 86 86 84 80 76 70 69 66 60 57 49 38 33 33 25 351 325 338 341 320 330 354
173 173 171 165 166 169 171 169 164 165 169 170 171 171 171 172 168 163 163 166 167 168 169 170 174 177 177 174 170 165 162 160 156 150 149 147 143 140 136 133 129 126 124 120 119 118 114 110 107 107 105 103 102 100 99 99 97 95 91 89 87 87 89 86 85 83 80 79 75 74 72 68 64 58 49 41 37 27 10 347 338 344 327 322 347
169 172 171 166 163 165 166 166 164 165 168 170 170 168 169 170 167 161 161 164 166 169 171 174 178 180 179 177 173 169 166 163 158 154 153 153 149 145 140 138 133 129 126 121 120 118 114 112 111 111 108 106 105 103 102 100 99 97 93 91 89 87 85 82 82 82 82 82 80 76 71 66 61 54 48 41 35 27 18 3 342 345 325 317 343
172 174 174 172 167 165 164 165 168 166 165 167 169 167 166 167 165 160 159 163 166 170 174 177 179 180 179 177 174 170 166 164 160 157 156 155 152 148 145 141 136 130 126 122 122 119 115 114 115 113 112 111 108 104 103 101 100 98 96 94 90 86 81 78 81 86 87 84 80 75 69 63 57 49 45 40 34 28 21 8 349 344 329 323 341
176 177 176 172 168 165 163 166 168 163 162 165 167 167 164 163 163 160 159 164 168 171 175 177 178 178 176 175 173 171 168 164 161 159 156 155 153 151 146 142 136 129 126 124 124 121 117 116 116 115 114 113 110 106 104 103 102 101 100 96 91 85 80 78 83 89 88 82 77 73 67 60 52 45 42 40 37 33 26 19 10 1 344 337 340
180 178 172 167 166 165 163 164 165 160 160 164 165 165 162 160 161 161 162 167 169 172 175 176 176 175 174 173 172 171 169 164 160 157 156 156 154 150 145 140 135 130 127 127 126 124 121 120 118 115 115 114 110 106 105 105 105 104 102 98 91 85 80 80 86 88 84 79 74 69 64 56 47 42 41 38 39 40 36 32 29 27 11 343 336
179 175 167 164 164 164 163 162 162 161 161 163 163 164 162 160 159 159 161 165 168 171 173 173 173 171 172 173 173 173 170 166 161 157 156 156 153 147 141 138 136 133 131 130 129 127 124 122 120 117 116 114 110 107 105 107 107 105 103 98 92 87 82 82 85 85 81 76 71 65 60 53 43 39 38 37 39 43 45 46 39 35 26 3 330
173 168 162 162 161 159 160 162 163 163 163 161 161 162 161 160 160 159 160 162 165 168 170 172 172 171 171 172 173 173 170 166 162 158 157 155 151 146 141 138 138 136 134 133 131 128 126 124 122 120 118 115 113 109 108 110 109 105 102 98 94 88 84 83 84 82 77 71 67 61 54 48 41 38 37 36 39 44 48 50 45 38 25 10 338
169 165 161 162 161 158 158 160 160 160 161 159 159 159 157 158 160 160 160 161 164 167 169 171 174 173 171 171 171 170 167 164 160 158 159 156 151 148 144 141 140 139 137 134 132 129 129 128 126 123 121 119 117 115 114 114 110 107 105 101 95 88 85 85 82 78 72 66 63 57 49 43 38 35 36 35 36 40 44 41 35 26 16 3 342
170 167 165 163 162 159 158 158 157 157 159 158 159 158 155 156 158 158 158 159 162 166 167 168 170 170 167 166 166 165 164 162 160 160 159 156 153 151 148 144 142 141 139 136 134 132 132 131 129 127 125 123 122 121 120 119 114 109 107 102 96 90 87 85 81 75 67 62 60 54 46 40 35 33 33 33 34 34 33 27 20 10 5 359 343
168 166 165 162 161 158 155 156 154 153 156 158 159 157 155 156 159 159 160 159 160 163 165 165 164 164 163 161 162 162 162 161 160 159 157 155 154 153 151 148 144 141 141 140 138 136 135 134 133 131 128 127 126 124 125 124 118 112 108 104 96 91 90 86 79 73 66 61 57 51 44 38 33 30 29 28 30 31 27 21 15 5 360 357 345
167 165 163 160 159 154 151 153 152 151 154 159 159 157 156 158 159 161 161 161 163 163 164 164 162 162 161 160 161 162 162 161 159 159 157 155 155 154 152 151 145 142 143 142 141 141 140 138 136 134 132 131 129 127 129 127 120 115 111 107 98 92 91 87 80 73 66 60 54 48 42 37 31 27 26 25 23 22 19 14 11 5 357 355 348
166 162 162 160 157 153 150 152 152 151 156 160 159 158 159 159 160 161 161 162 165 165 166 165 163 162 162 161 162 162 162 162 160 159 158 156 156 155 155 153 147 145 146 145 146 147 147 145 140 138 137 136 133 131 131 128 123 118 113 108 101 95 92 88 82 76 67 59 54 48 42 35 29 27 28 27 24 19 14 9 5 1 353 350 350
162 159 159 156 154 152 152 153 152 154 158 161 160 159 159 160 161 163 163 164 166 166 166 166 164 163 162 162 163 163 163 162 161 159 158 158 157 156 157 155 150 149 150 149 150 152 153 152 147 143 142 141 139 137 135 131 126 120 113 107 102 99 96 90 83 76 67 58 52 48 41 33 29 31 31 28 24 18 11 5 360 355 351 346 346
157 154 153 152 153 156 158 157 154 157 161 162 162 160 160 161 162 164 165 166 168 168 167 167 165 163 163 164 163 163 164 162 160 159 158 158 158 157 158 157 153 151 149 150 153 157 159 158 152 149 147 145 143 142 140 135 129 123 116 108 103 105 103 94 83 75 67 58 52 46 40 33 31 32 30 23 17 12 7 2 358 354 352 347 345
158 155 155 155 157 162 163 159 157 161 164 164 163 163 162 163 164 166 167 167 168 170 168 167 166 165 164 164 163 164 164 162 161 159 159 159 158 159 159 157 157 154 148 149 154 158 162 161 157 153 151 148 145 144 142 137 130 125 122 115 111 115 113 99 84 74 65 56 51 45 37 35 36 31 24 17 10 6 4 2 359 356 352 349 346
163 159 159 161 162 166 165 162 161 163 166 167 165 165 165 165 165 166 168 169 169 170 169 168 167 166 165 165 165 165 164 163 162 160 159 160 159 161 161 158 160 160 153 151 152 155 159 160 158 155 152 149 146 143 141 138 131 127 127 125 120 124 128 114 91 75 64 55 49 42 38 37 36 26 17 11 5 1 2 3 0 357 354 350 348
164 163 165 166 166 168 166 165 164 163 166 169 168 168 168 167 166 167 169 170 170 170 169 168 167 166 166 166 166 165 164 163 163 161 161 160 161 162 160 157 160 161 156 153 151 152 155 157 157 155 152 150 148 144 141 140 136 131 131 128 117 121 137 136 115 83 63 57 48 40 39 37 29 19 11 6 4 1 1 2 1 359 356 353 349
168 170 173 172 170 171 168 167 166 164 166 169 170 170 169 167 167 168 170 171 171 170 169 167 167 167 167 167 167 166 165 164 163 163 162 161 161 161 157 153 156 157 156 153 151 150 152 153 155 154 152 152 150 145 143 144 142 137 135 128 113 114 131 141 133 100 68 59 50 40 38 32 19 11 6 5 7 7 4 2 2 1 358 355 351
175 175 177 176 174 173 169 167 168 168 167 169 170 170 168 166 166 168 169 171 171 170 169 168 168 168 168 168 168 168 167 166 165 164 163 162 162 160 156 153 154 156 155 153 150 150 151 152 153 152 152 153 151 149 148 149 148 144 141 133 120 115 124 142 148 112 79 61 50 41 33 20 9 5 6 7 8 9 7 4 4 3 1 357 353
179 177 176 176 174 172 171 171 172 172 170 170 171 171 168 167 167 169 170 172 173 171 170 170 170 170 170 170 170 170 169 168 167 166 165 164 162 160 156 154 153 154 154 153 152 151 150 151 152 152 152 151 150 150 153 156 154 151 149 142 133 124 119 136 155 127 89 65 50 35 21 10 4 4 6 6 7 7 6 5 4 4 3 2 358
179 178 175 176 177 176 176 175 173 172 172 173 172 171 169 167 168 171 172 172 173 172 171 172 172 171 171 171 171 170 169 169 168 167 166 164 162 160 156 153 152 153 153 152 152 150 149 150 151 151 150 149 148 148 151 156 156 157 159 154 147 143 129 131 150 145 104 70 46 19 8 4 4 5 4 4 6 6 5 3 2 3 4 4 4
178 180 180 180 182 180 178 176 174 175 176 176 174 173 172 171 171 172 172 172 173 173 172 172 173 173 173 173 172 171 169 169 170 169 166 164 162 159 153 150 149 152 153 152 150 149 148 150 151 150 148 146 145 146 149 153 154 158 166 168 157 149 139 135 150 154 123 80 37 4 1 2 4 6 5 5 5 3 1 0 1 3 3 4 6
180 182 183 182 180 178 177 176 176 178 178 177 177 176 176 174 173 173 173 173 173 172 172 173 173 174 174 174 173 172 170 170 171 169 167 164 163 158 151 148 148 152 154 152 149 148 147 150 153 150 148 146 145 147 154 158 162 167 176 177 169 157 147 149 162 166 141 88 19 357 359 0 3 8 8 6 5 2 360 359 360 3 3 4 6
183 183 182 180 175 174 175 177 178 179 178 177 178 178 176 174 173 173 173 173 172 171 172 174 173 174 175 174 173 171 170 170 171 171 169 166 164 159 152 148 149 152 152 149 148 149 148 150 153 152 150 148 146 151 162 173 185 198 204 197 187 176 164 158 167 172 157 77 0 356 359 359 4 13 11 7 5 2 359 359 0 1 2 5 6
184 182 181 180 179 178 178 178 178 177 177 178 179 178 174 172 173 173 173 173 172 171 173 174 174 175 176 175 174 171 170 170 171 172 171 168 165 162 157 151 149 148 146 144 144 146 148 151 154 158 157 153 151 158 172 186 198 206 207 202 196 186 175 162 157 162 152 19 354 355 1 3 8 14 12 9 6 3 1 0 1 1 2 4 5
185 185 185 183 182 181 179 177 176 176 177 178 178 177 174 171 173 174 174 173 173 173 175 176 176 176 177 177 176 173 171 171 172 173 172 170 168 166 162 157 153 149 145 142 140 141 144 148 152 158 159 152 148 153 157 163 160 153 179 194 196 193 184 174 165 160 124 19 8 1 4 9 12 14 13 11 7 4 3 3 2 1 2 2 2
181 180 179 178 179 178 177 176 176 178 179 179 177 176 174 172 174 176 175 175 176 176 177 178 177 177 177 178 178 177 175 173 174 176 175 173 171 170 168 165 161 153 147 142 139 137 138 140 143 146 146 141 138 137 134 131 128 130 160 183 193 198 194 187 183 174 141 93 35 8 8 12 14 16 16 13 10 8 8 8 5 3 1 360 359
182 178 175 175 175 175 176 178 178 178 180 179 178 176 174 175 177 178 177 178 179 180 180 179 178 178 179 180 180 180 180 177 177 179 179 177 175 174 173 170 165 157 149 143 139 136 134 133 134 132 130 129 127 126 125 121 119 123 143 168 187 198 195 188 183 168 149 129 50 14 13 16 18 21 20 16 15 15 15 14 10 6 2 358 358
177 178 177 174 173 173 175 178 179 179 179 179 178 176 176 177 177 177 180 183 183 182 180 177 177 178 179 181 182 182 182 181 180 181 181 181 179 177 176 174 168 158 151 145 141 139 136 134 131 126 122 121 120 121 121 118 113 109 109 144 176 182 170 160 154 148 143 116 45 25 19 19 23 26 23 20 20 20 20 19 16 10 4 359 358
175 176 175 172 174 178 178 180 181 178 178 179 177 176 177 177 176 179 185 187 184 180 177 176 178 179 179 181 183 184 184 184 183 183 183 182 182 180 180 179 173 164 157 153 150 150 149 147 141 133 128 123 120 121 117 109 104 95 95 130 159 155 144 138 137 134 123 74 31 22 19 23 27 28 25 23 23 22 22 22 19 14 8 2 1
175 175 175 173 175 180 180 181 181 177 177 178 178 178 179 178 180 185 187 185 182 179 177 177 179 179 180 182 184 185 185 185 186 185 184 182 183 183 184 183 180 175 170 166 164 166 169 169 164 156 149 140 132 127 115 102 93 86 97 133 151 149 140 135 136 130 103 36 13 12 14 22 27 26 24 24 24 22 21 21 19 17 14 9 6
171 175 178 175 174 178 179 180 180 178 178 179 180 181 181 181 185 188 184 182 181 178 176 178 179 180 181 183 185 185 186 187 187 187 185 183 183 184 186 188 186 183 179 175 175 179 184 186 185 182 180 178 172 156 134 117 101 91 116 141 152 153 147 142 139 131 69 359 358 5 8 16 22 22 21 22 22 20 19 18 17 17 16 13 9
174 176 178 176 174 177 178 179 180 179 180 181 182 182 181 184 188 186 179 177 177 175 177 179 180 180 183 186 187 186 187 188 188 187 186 184 184 186 188 191 190 187 183 181 183 188 193 196 198 197 196 198 202 205 195 172 162 145 143 153 159 157 154 150 147 145 338 343 348 350 350 2 14 16 15 17 19 18 17 16 15 15 15 15 12
173 174 176 177 176 177 176 177 180 180 181 184 185 183 182 185 187 182 178 176 175 176 179 181 181 182 185 186 186 186 187 189 188 186 185 184 184 187 189 192 192 188 185 185 188 194 198 202 204 205 204 203 207 218 221 211 204 194 176 173 176 172 170 175 193 273 310 333 337 331 332 345 360 7 9 11 14 16 15 13 13 13 13 14 14
167 171 174 176 176 176 176 176 178 180 182 184 187 186 186 187 186 182 180 178 176 177 180 180 180 182 183 184 184 184 186 188 187 187 187 187 187 186 187 189 190 190 189 190 193 199 203 207 211 213 211 208 210 221 229 225 217 209 199 196 199 199 200 210 236 267 279 306 318 312 315 327 344 359 4 6 8 11 12 11 12 11 11 13 13
169 170 171 173 174 175 175 174 176 180 182 184 188 191 191 188 185 182 180 178 177 178 179 179 179 180 181 183 184 183 184 186 187 187 189 191 191 190 190 191 192 193 194 196 199 203 207 212 217 220 220 216 216 224 230 229 225 219 210 207 210 212 215 223 242 255 256 270 296 298 305 323 340 352 360 2 3 4 6 9 11 9 8 9 11
168 169 171 173 174 174 174 174 176 180 183 185 188 192 192 187 182 180 178 177 177 178 178 178 179 180 181 184 185 185 184 185 187 188 191 193 195 196 197 199 199 199 199 200 203 208 213 218 221 224 226 223 223 228 231 229 228 224 215 210 211 214 220 230 245 255 254 262 284 292 300 320 336 345 353 359 1 3 4 5 7 7 5 4 6
166 170 174 175 174 174 174 175 178 180 182 185 188 190 189 185 182 180 178 176 177 179 179 179 180 181 183 185 186 186 186 186 187 190 193 196 199 202 204 206 207 208 207 207 208 212 216 222 226 230 230 226 225 231 233 230 230 228 220 216 216 220 228 239 254 266 266 265 279 290 298 316 333 343 350 356 360 1 2 2 3 4 2 0 2
164 169 174 175 176 176 175 176 179 180 182 185 187 187 187 186 184 182 179 178 178 179 179 180 182 182 184 185 186 187 188 187 188 189 192 196 201 205 209 212 214 215 216 217 216 216 218 223 229 234 234 230 233 242 236 226 227 228 222 220 224 228 235 246 259 272 272 266 275 290 297 313 330 339 346 353 357 358 358 358 359 360 359 358 358
163 166 169 172 173 175 176 177 179 181 183 186 186 185 185 185 184 183 182 181 180 179 181 183 183 183 185 186 187 187 188 188 189 190 192 194 198 203 209 214 217 219 220 221 221 221 224 229 234 236 232 228 235 244 233 224 227 229 224 224 228 233 239 249 262 274 274 265 271 287 296 304 320 332 341 348 352 354 355 354 353 354 355 355 355